JOK9L ENTC-ENKR

Flight info

Callsign JOK9L
Flight time 0h 46m
Altitude 29000
Route ERPUG DCT TINOS DCT VADLA
Aircraft CRJ9/M-SDFGIRWY/S

Departure

Time 2026-05-04 18:39
Airport Tromsø Airport (ENTC)

Arrival

Time 2026-05-04 19:25
Airport Kirkenes Airport, Høybuktmoen (ENKR)
Time Latitude Longitude Altitude Speed Heading
2026-05-04 18:23 69.68082 18.91036 33 ft 0 kts 282°
2026-05-04 18:26 69.68082 18.91037 33 ft 0 kts 282°
2026-05-04 18:33 69.68082 18.91043 33 ft 2 kts 282°
2026-05-04 18:33 69.68076 18.91116 33 ft 4 kts 282°
2026-05-04 18:34 69.68070 18.91192 33 ft 4 kts 282°
2026-05-04 18:34 69.68067 18.91256 33 ft 4 kts 267°
2026-05-04 18:34 69.68076 18.91318 33 ft 4 kts 221°
2026-05-04 18:34 69.68099 18.91347 33 ft 4 kts 191°
2026-05-04 18:35 69.68120 18.91359 33 ft 0 kts 192°
2026-05-04 18:36 69.68096 18.91343 33 ft 12 kts 193°
2026-05-04 18:37 69.67960 18.91254 33 ft 27 kts 193°
2026-05-04 18:37 69.67773 18.91128 33 ft 27 kts 193°
2026-05-04 18:37 69.67637 18.91119 33 ft 10 kts 124°
2026-05-04 18:37 69.67631 18.91384 38 ft 10 kts 54°
2026-05-04 18:38 69.67671 18.91444 38 ft 0 kts 13°
2026-05-04 18:38 69.67770 18.91509 38 ft 44 kts 13°
2026-05-04 18:38 69.68267 18.91860 29 ft 103 kts 13°
2026-05-04 18:38 69.69096 18.92402 159 ft 132 kts 15°
2026-05-04 18:39 69.70064 18.92988 531 ft 149 kts 13°
2026-05-04 18:39 69.71072 18.93533 1142 ft 156 kts 14°
2026-05-04 18:39 69.72212 18.94333 1565 ft 177 kts 15°
2026-05-04 18:39 69.73351 18.95653 2237 ft 178 kts 45°
2026-05-04 18:40 69.73911 18.98762 2921 ft 178 kts 71°
2026-05-04 18:40 69.74375 19.02087 3638 ft 179 kts 64°
2026-05-04 18:40 69.74977 19.05281 4323 ft 183 kts 60°
2026-05-04 18:40 69.75631 19.08423 4997 ft 184 kts 59°
2026-05-04 18:41 69.76289 19.11629 5665 ft 187 kts 60°
2026-05-04 18:41 69.76944 19.14893 6365 ft 189 kts 60°
2026-05-04 18:41 69.77608 19.18252 6917 ft 200 kts 61°
2026-05-04 18:41 69.78312 19.21892 7376 ft 214 kts 62°
2026-05-04 18:42 69.78770 19.25957 8062 ft 215 kts 87°
2026-05-04 18:42 69.78832 19.30349 8666 ft 225 kts 88°
2026-05-04 18:42 69.78907 19.35021 9289 ft 231 kts 88°
2026-05-04 18:42 69.78979 19.39759 9943 ft 235 kts 88°
2026-05-04 18:43 69.79050 19.44720 10593 ft 238 kts 89°
2026-05-04 18:43 69.79118 19.49450 11204 ft 241 kts 89°
2026-05-04 18:43 69.79195 19.54333 11816 ft 245 kts 88°
2026-05-04 18:43 69.79293 19.59279 12418 ft 248 kts 88°
2026-05-04 18:44 69.79400 19.64294 13040 ft 251 kts 88°
2026-05-04 18:44 69.79471 19.67642 13442 ft 253 kts 88°
2026-05-04 18:44 69.79614 19.74461 14201 ft 256 kts 88°
2026-05-04 18:44 69.79720 19.79620 14766 ft 258 kts 88°
2026-05-04 18:45 69.79824 19.84821 15320 ft 260 kts 89°
2026-05-04 18:45 69.79930 19.90057 15887 ft 262 kts 89°
2026-05-04 18:45 69.80035 19.95414 16454 ft 264 kts 89°
2026-05-04 18:45 69.80138 20.00732 17012 ft 266 kts 89°
2026-05-04 18:46 69.80240 20.06104 17545 ft 269 kts 89°
2026-05-04 18:46 69.80341 20.11518 18045 ft 270 kts 89°
2026-05-04 18:46 69.80443 20.16974 18497 ft 273 kts 89°
2026-05-04 18:46 69.80543 20.22488 18945 ft 275 kts 89°
2026-05-04 18:47 69.80638 20.28027 19422 ft 276 kts 89°
2026-05-04 18:47 69.80736 20.33615 19824 ft 280 kts 90°
2026-05-04 18:47 69.80832 20.39280 20233 ft 283 kts 90°
2026-05-04 18:47 69.80931 20.44990 20670 ft 285 kts 90°
2026-05-04 18:48 69.81024 20.50728 21127 ft 286 kts 90°
2026-05-04 18:48 69.81118 20.56480 21582 ft 287 kts 90°
2026-05-04 18:48 69.81208 20.62280 22012 ft 289 kts 90°
2026-05-04 18:48 69.81301 20.68129 22404 ft 292 kts 91°
2026-05-04 18:49 69.81389 20.74094 22813 ft 294 kts 90°
2026-05-04 18:49 69.81479 20.80027 23168 ft 296 kts 91°
2026-05-04 18:49 69.81564 20.85995 23465 ft 298 kts 91°
2026-05-04 18:49 69.81650 20.92005 23762 ft 300 kts 90°
2026-05-04 18:50 69.81733 20.98063 24058 ft 302 kts 90°
2026-05-04 18:50 69.81815 21.04164 24361 ft 305 kts 90°
2026-05-04 18:50 69.81895 21.10306 24656 ft 307 kts 90°
2026-05-04 18:50 69.81976 21.16498 24956 ft 309 kts 90°
2026-05-04 18:51 69.82053 21.22739 25234 ft 311 kts 90°
2026-05-04 18:51 69.82129 21.28935 25542 ft 313 kts 90°
2026-05-04 18:51 69.82204 21.35432 25846 ft 315 kts 90°
2026-05-04 18:51 69.82278 21.41782 26136 ft 317 kts 90°
2026-05-04 18:52 69.82327 21.46336 26341 ft 319 kts 90°
2026-05-04 18:52 69.82400 21.53124 26665 ft 321 kts 90°
2026-05-04 18:52 69.82469 21.59663 26961 ft 323 kts 90°
2026-05-04 18:52 69.82534 21.66222 27261 ft 326 kts 90°
2026-05-04 18:53 69.82600 21.72868 27548 ft 328 kts 90°
2026-05-04 18:53 69.82660 21.79492 27837 ft 330 kts 90°
2026-05-04 18:53 69.82719 21.86172 28118 ft 332 kts 90°
2026-05-04 18:53 69.82777 21.92888 28375 ft 336 kts 90°
2026-05-04 18:54 69.82832 21.99717 28496 ft 343 kts 90°
2026-05-04 18:54 69.82938 22.13907 28578 ft 362 kts 90°
2026-05-04 18:55 69.83040 22.28903 28599 ft 382 kts 90°
2026-05-04 18:55 69.83133 22.44672 28594 ft 397 kts 90°
2026-05-04 18:55 69.83172 22.52716 28588 ft 401 kts 90°
2026-05-04 18:56 69.83245 22.69012 28579 ft 408 kts 91°
2026-05-04 18:56 69.83305 22.85572 28576 ft 414 kts 91°
2026-05-04 18:57 69.83347 23.02379 28576 ft 420 kts 91°
2026-05-04 18:57 69.83375 23.19401 28573 ft 425 kts 91°
2026-05-04 18:58 69.83389 23.36641 28574 ft 430 kts 91°
2026-05-04 18:58 69.83380 23.54244 28579 ft 434 kts 91°
2026-05-04 18:59 69.83358 23.71764 28573 ft 439 kts 91°
2026-05-04 18:59 69.83319 23.89522 28573 ft 442 kts 92°
2026-05-04 19:00 69.83258 24.07420 28564 ft 446 kts 92°
2026-05-04 19:00 69.83189 24.25422 28550 ft 448 kts 92°
2026-05-04 19:01 69.83118 24.43507 28560 ft 449 kts 92°
2026-05-04 19:01 69.83043 24.61679 28568 ft 452 kts 92°
2026-05-04 19:02 69.82967 24.79944 28566 ft 454 kts 92°
2026-05-04 19:02 69.82890 24.98243 28566 ft 455 kts 92°
2026-05-04 19:03 69.82811 25.16638 28564 ft 457 kts 92°
2026-05-04 19:03 69.82732 25.35102 28567 ft 459 kts 92°
2026-05-04 19:04 69.82651 25.53644 28557 ft 461 kts 92°
2026-05-04 19:04 69.82568 25.72345 28562 ft 461 kts 92°
2026-05-04 19:05 69.82483 25.90962 28555 ft 463 kts 92°
2026-05-04 19:05 69.82397 26.09614 28560 ft 461 kts 92°
2026-05-04 19:06 69.82354 26.18917 28338 ft 466 kts 92°
2026-05-04 19:06 69.82311 26.28181 27706 ft 454 kts 92°
2026-05-04 19:06 69.82271 26.37213 27048 ft 444 kts 92°
2026-05-04 19:06 69.82234 26.46078 26342 ft 437 kts 92°
2026-05-04 19:07 69.82199 26.54806 25650 ft 429 kts 92°
2026-05-04 19:07 69.82165 26.63503 24968 ft 423 kts 92°
2026-05-04 19:07 69.82132 26.71953 24309 ft 417 kts 91°
2026-05-04 19:07 69.82101 26.80294 23668 ft 412 kts 91°
2026-05-04 19:08 69.82072 26.88532 23023 ft 406 kts 91°
2026-05-04 19:08 69.82042 26.96665 22259 ft 402 kts 91°
2026-05-04 19:08 69.82017 27.04709 21524 ft 398 kts 91°
2026-05-04 19:08 69.81990 27.12680 20838 ft 393 kts 91°
2026-05-04 19:09 69.81861 27.20501 20249 ft 385 kts 101°
2026-05-04 19:09 69.81413 27.28069 19691 ft 379 kts 98°
2026-05-04 19:09 69.81192 27.35638 19168 ft 374 kts 95°
2026-05-04 19:09 69.81030 27.43100 18680 ft 369 kts 95°
2026-05-04 19:10 69.80888 27.50471 18197 ft 364 kts 95°
2026-05-04 19:10 69.80756 27.57749 17700 ft 361 kts 94°
2026-05-04 19:10 69.80628 27.64964 17160 ft 357 kts 94°
2026-05-04 19:10 69.80497 27.72101 16628 ft 354 kts 94°
2026-05-04 19:11 69.80366 27.79172 16107 ft 351 kts 94°
2026-05-04 19:11 69.80233 27.86088 15588 ft 348 kts 94°
2026-05-04 19:11 69.80096 27.93048 15092 ft 345 kts 94°
2026-05-04 19:11 69.79958 27.99934 14594 ft 342 kts 95°
2026-05-04 19:12 69.79817 28.06782 14107 ft 339 kts 95°
2026-05-04 19:12 69.79533 28.20312 13123 ft 335 kts 95°
2026-05-04 19:12 69.79391 28.27009 12593 ft 332 kts 95°
2026-05-04 19:13 69.79251 28.33660 12069 ft 330 kts 95°
2026-05-04 19:13 69.79114 28.40254 11560 ft 327 kts 95°
2026-05-04 19:13 69.78980 28.46845 11128 ft 322 kts 95°
2026-05-04 19:13 69.78853 28.53166 10720 ft 317 kts 95°
2026-05-04 19:14 69.78728 28.59578 10295 ft 313 kts 95°
2026-05-04 19:14 69.78609 28.65812 9881 ft 309 kts 95°
2026-05-04 19:14 69.78494 28.71971 9483 ft 305 kts 95°
2026-05-04 19:14 69.78385 28.78050 9035 ft 301 kts 95°
2026-05-04 19:15 69.78275 28.84060 8586 ft 297 kts 95°
2026-05-04 19:15 69.78160 28.90186 8151 ft 318 kts 95°
2026-05-04 19:15 69.78032 28.96564 7639 ft 317 kts 95°
2026-05-04 19:15 69.77892 29.03219 7162 ft 345 kts 95°
2026-05-04 19:16 69.77743 29.09992 6691 ft 331 kts 95°
2026-05-04 19:16 69.77557 29.16487 6216 ft 318 kts 100°
2026-05-04 19:16 69.77277 29.20577 5844 ft 308 kts 104°
2026-05-04 19:16 69.76799 29.26379 5332 ft 287 kts 105°
2026-05-04 19:17 69.76320 29.31819 4874 ft 272 kts 106°
2026-05-04 19:17 69.75849 29.36999 4442 ft 261 kts 106°
2026-05-04 19:17 69.75383 29.42003 4167 ft 248 kts 106°
2026-05-04 19:17 69.74943 29.46698 4053 ft 236 kts 106°
2026-05-04 19:18 69.74536 29.51040 3854 ft 217 kts 106°
2026-05-04 19:18 69.74156 29.55235 3422 ft 211 kts 106°
2026-05-04 19:18 69.73814 29.58917 3417 ft 183 kts 107°
2026-05-04 19:18 69.73449 29.62481 3101 ft 185 kts 108°
2026-05-04 19:19 69.73074 29.66013 2814 ft 183 kts 108°
2026-05-04 19:19 69.72667 29.69476 2508 ft 184 kts 110°
2026-05-04 19:19 69.72205 29.72962 2150 ft 189 kts 111°
2026-05-04 19:19 69.71738 29.76493 1714 ft 196 kts 107°
2026-05-04 19:20 69.71579 29.80319 1272 ft 194 kts 85°
2026-05-04 19:20 69.71876 29.84173 622 ft 200 kts 69°
2026-05-04 19:20 69.72391 29.87855 301 ft 191 kts 68°
2026-05-04 19:20 69.72807 29.91089 520 ft 150 kts 69°
2026-05-04 19:21 69.73148 29.93740 1085 ft 134 kts 69°
2026-05-04 19:21 69.73531 29.96037 1383 ft 120 kts 58°
2026-05-04 19:21 69.74188 29.97357 1511 ft 119 kts 14°
2026-05-04 19:21 69.75133 29.96885 1466 ft 169 kts 325°
2026-05-04 19:22 69.75738 29.93718 1761 ft 202 kts 273°
2026-05-04 19:22 69.75810 29.89431 1748 ft 212 kts 271°
2026-05-04 19:22 69.75793 29.85633 1917 ft 172 kts 265°
2026-05-04 19:22 69.75574 29.82337 1615 ft 170 kts 256°
2026-05-04 19:23 69.75309 29.78863 1508 ft 182 kts 257°
2026-05-04 19:23 69.74967 29.75597 1393 ft 159 kts 247°
2026-05-04 19:23 69.74409 29.72814 1190 ft 160 kts 230°
2026-05-04 19:23 69.73523 29.71472 1255 ft 133 kts 170°
2026-05-04 19:24 69.72861 29.72895 941 ft 129 kts 108°
2026-05-04 19:24 69.72611 29.75539 1055 ft 144 kts 103°
2026-05-04 19:24 69.72319 29.78326 1175 ft 141 kts 108°
2026-05-04 19:24 69.72019 29.80893 1066 ft 125 kts 105°
2026-05-04 19:25 69.71900 29.83293 719 ft 125 kts 86°
2026-05-04 19:25 69.72080 29.85610 419 ft 115 kts 69°
2026-05-04 19:25 69.72379 29.87785 296 ft 112 kts 68°
2026-05-04 19:25 69.72612 29.89530 296 ft 44 kts 69°
2026-05-04 19:26 69.72651 29.89882 294 ft 1 kts 17°
2026-05-04 19:26 69.72652 29.89882 294 ft 0 kts 10°
2026-05-04 19:26 69.72666 29.89865 293 ft 5 kts 315°
2026-05-04 19:27 69.72654 29.89711 296 ft 21 kts 237°
2026-05-04 19:27 69.72557 29.89466 295 ft 14 kts 185°
2026-05-04 19:27 69.72482 29.89307 294 ft 18 kts 249°
2026-05-04 19:27 69.72415 29.88903 295 ft 23 kts 238°
2026-05-04 19:28 69.72322 29.88567 294 ft 20 kts 230°
2026-05-04 19:28 69.72260 29.88330 293 ft 8 kts 217°
2026-05-04 19:28 69.72230 29.88322 296 ft 6 kts 165°
2026-05-04 19:28 69.72215 29.88337 294 ft 3 kts 160°
2026-05-04 19:29 69.72207 29.88345 294 ft 0 kts 159°